Estación Meteorológica Peña el Pijo (Robertgarden) [ 09/30/20 21:07:16 CEST ]

Fecha Hora Presion(HPa) Temp (°C) Humedad % Rocio (°C) Viento ( m/s) Direccion Lluvia 1Hora(mm) Lluvia 24H(mm) LLuvia Total(mm)
2020-Feb-22 01:08:55 1018.800 - - - - N     39.88
2020-Feb-22 02:10:52 1019.100 - - - - N     39.88
2020-Feb-22 03:09:07 1018.900 - - - - N     39.88
2020-Feb-22 04:09:05 1019.000 - - - - N     39.88
2020-Feb-22 05:09:26 1019.200 - - - - N     39.88
2020-Feb-22 06:08:57 1019.300 - - - - N     39.88
2020-Feb-22 07:09:02 1019.500 - - - - N     39.88
2020-Feb-22 08:09:16 1020.300 - - - - N     39.88
2020-Feb-22 09:09:38 1020.700 - - - - N     39.88
2020-Feb-22 10:08:53 1021.200 - - - - N     39.88
2020-Feb-22 11:09:25 1020.800 - - - - N     39.88
2020-Feb-22 12:09:18 1020.300 - - - - N     39.88
2020-Feb-22 13:09:52 1020.100 - - - - N     39.88
2020-Feb-22 14:09:09 1019.400 - - - - N     39.88
2020-Feb-22 15:09:10 1019.100 - - - - N     39.88
2020-Feb-22 16:09:19 1019.300 - - - - N     39.88
2020-Feb-22 17:09:05 1019.300 - - - - N     39.88
2020-Feb-22 18:09:07 1019.600 - - - - N     39.88
2020-Feb-22 19:09:44 1020.000 - - - - N     39.88
2020-Feb-22 20:09:42 1021.200 - - - - N     39.88
2020-Feb-22 21:09:12 1021.700 - - - - N     39.88
2020-Feb-22 22:09:17 1022.200 - - - - N     39.88
2020-Feb-22 23:09:05 1022.400 - - - - N     39.88

Temperatura Máxima:    Temperatura Mínima:
Presión Máxima:1022.400 Hpa    Presión Mínima:1018.800 Hpa


Volver